{"data":{"norad_id":37847,"epoch":"2026-05-24T21:27:21.877344Z","epoch_age_seconds":84075,"freshness":"FRESH","line1":"1 37847U 11060B   26144.89400321 -.00000090  00000+0  00000+0 0  9999","line2":"2 37847  57.0043 342.3932 0003903  11.2637 346.7410  1.70475962 90725","mean_motion":1.70475962,"eccentricity":0.0003903,"inclination_deg":57.0043,"raan_deg":342.3932,"arg_perigee_deg":11.2637,"mean_anomaly_deg":346.741,"bstar":0,"rev_number":9072,"period_min":844.69386950871,"perigee_km":23210.403028372,"apogee_km":23233.508860925,"semimajor_km":29600.092944649,"source":"CELESTRAK","updated_at":"2026-05-25T13:38:24.051603Z"}}